Flag for Germany Weather past 2 weeks in Rheda-Wiedenbrück, North Rhine-Westphalia, Germany

Now
39 °F

Passing clouds.


Feels Like: 30 °F
Forecast: 29 / 36 °F
Wind: 16 mph from West

Location: Paderborn / Lippstadt

Current Time: Dec 25, 2014 at 8:23:45 AM

Latest Report: Dec 25, 2014 at 7:50 AM


Visibility: N/A

Pressure: 30.09 "Hg

Humidity: 75%

Dew point: 32 °F

Location of Rheda-WiedenbrückLocation

Historic Weather in Rheda-Wiedenbrück — Graph

°F

Rheda-Wiedenbrück temperature yesterday

Maximum temperature yesterday: 46 °F (at 12:20 AM)
Minimum temperature yesterday: 37 °F (at 11:50 PM)
Average temperature yesterday: 44 °F

Past Weeks' High & Low Weather Summary

 TemperatureHumidityPressure
High54 °F (Dec 18, 5:50 PM)100% (Dec 10, 2:50 PM)30.33 "Hg (Dec 10, 2:50 PM)
Low27 °F (Dec 15, 12:50 AM)56% (Dec 10, 6:20 AM)29.39 "Hg (Dec 12, 2:50 PM)
Average42 °F86%29.90 "Hg
* Reported Dec 10 6:20 AM — Dec 25 6:50 AM, Rheda-Wiedenbrück, Weather by CustomWeather, © 2014

Note: Actual official high and low records may vary slightly from our data, if they occured in-between our weather recording intervals... More about our weather records

Advertising

Rheda-Wiedenbrück weather history for previous 24 hours

 ConditionsComfort  
Time TempWeatherWind HumidityBarometerVisibility
6:50 AM
Dec 25
39 °FPassing clouds.17 mph75%30.07 "HgN/A
6:20 AM39 °FPassing clouds.14 mph75%30.09 "HgN/A
5:50 AM37 °FPassing clouds.15 mph81%30.07 "HgN/A
5:20 AM37 °FPassing clouds.16 mph81%30.07 "HgN/A
11:50 PM
Dec 24
37 °FClear.13 mph81%30.04 "Hg10 mi
11:20 PM39 °FPassing clouds.12 mph75%30.07 "HgN/A
10:50 PM39 °FPassing clouds.10 mph75%30.04 "HgN/A
10:20 PM39 °FPassing clouds.10 mph75%30.04 "HgN/A
9:50 PM41 °FPassing clouds.12 mph81%30.04 "HgN/A
9:20 PM41 °FPassing clouds.13 mph76%30.01 "HgN/A
8:50 PM41 °FLight rain. Partly cloudy.12 mph93%30.01 "HgN/A
8:20 PM41 °FLight rain. Passing clouds.10 mph100%29.98 "HgN/A
7:50 PM41 °FLight rain. Passing clouds.10 mph100%29.98 "HgN/A
7:20 PM41 °FLight rain. Passing clouds.9 mph100%29.98 "Hg6 mi
6:50 PM41 °FLight rain. Partly cloudy.8 mph100%29.98 "HgN/A
6:20 PM41 °FLight rain. Passing clouds.8 mph100%29.95 "Hg5 mi
5:50 PM41 °FLight rain. Partly cloudy.9 mph100%29.95 "Hg4 mi
5:20 PM43 °FLight rain. Partly cloudy.13 mph100%29.92 "Hg4 mi
4:50 PM46 °FLight rain. Passing clouds.12 mph93%29.92 "Hg4 mi
4:20 PM46 °FLight rain. Passing clouds.13 mph93%29.92 "Hg4 mi
3:20 PM46 °FLight rain. Partly sunny.16 mph93%29.89 "HgN/A
2:50 PM45 °FLight rain. Partly sunny.15 mph100%29.89 "HgN/A
2:20 PM45 °FLight rain. Fog.15 mph100%29.89 "Hg3 mi
1:50 PM45 °FLight rain. Partly sunny.16 mph100%29.89 "HgN/A
1:20 PM43 °FLight rain. Fog.18 mph100%29.92 "Hg2 mi
12:50 PM43 °FLight rain. Fog.18 mph100%29.92 "Hg2 mi
12:20 PM43 °FLight rain. Fog.21 mph100%29.92 "Hg2 mi
11:50 AM43 °FLight rain. Fog.23 mph100%29.92 "Hg2 mi
11:20 AM43 °FLight rain. Fog.22 mph93%29.92 "Hg2 mi
10:50 AM45 °FPartly sunny.25 mph81%29.92 "HgN/A
10:20 AM45 °FPartly sunny.24 mph81%29.92 "HgN/A
9:20 AM45 °FLight rain. Partly sunny.23 mph81%29.92 "HgN/A
8:50 AM45 °FLight rain. Partly sunny.22 mph81%29.92 "HgN/A
8:20 AM45 °FLight rain. Passing clouds.23 mph76%29.92 "HgN/A
Weather by CustomWeather, © 2014

See weather overviewHow to use our weather pages